Location: Karwodrza
(49.9217°N, 21.0454°E)
Time: 11:58:05
(UTC+01:00)

N. Korean satellite - Visible Passes

Search period start: 20 March 2019 00:00
Search period end: 30 March 2019 00:00
Orbit: 455 x 510 km, 97.2° (Epoch: 19 March)

Date Brightness Start Highest point End Pass type
(mag) Time Alt. Az. Time Alt. Az. Time Alt. Az.
20 Mar 9.8 04:55:52 10° NE 04:58:16 17° E 05:00:40 10° SE visible
24 Mar 9.9 04:50:12 10° NE 04:52:21 15° E 04:54:31 10° SE visible
28 Mar 10.1 04:44:32 10° ENE 04:46:24 14° E 04:48:17 10° ESE visible
